Погода в Индиан-Уэллсе

США     33°43′04″N   116°18′24″W
темп.,
°C
ветер,
м/с
пор.,
м/с
влажн.,
%
обл.,
%
осадки,
мм/ч
давл.,
гПа
погр.,
м
16 октября, сб
сб1623:00+21ссз12110 0.0 101815
02:00+21ссз22110 0.0 101815
05:00+19ссз22120 0.0 101714
08:00+21с12140 0.0 101725
11:00+26зсз2290 0.0 1017879
14:00+29юз2280 0.0 10141404
17:00+29зюз1190 0.0 1013947
20:00+24вюв22130 0.0 101427
17 октября, вс
вс1723:00+23сз221482 0.0 101412
02:00+22сз221493 0.0 101312
05:00+21сз2215100 0.0 101212
08:00+22сз1116100 0.0 101312
11:00+27вюв011180 0.0 1013718
14:00+29юв3490 0.0 10101685
17:00+28юз24110 0.0 10091839
20:00+23сз46170 0.0 1010147
18 октября, пн
пн1823:00+20сз46210 0.0 1011120
02:00+18сз462720 0.0 1011120
05:00+16сз34320 0.0 101071
08:00+17сз353717 0.0 1011294
11:00+21ссз232788 0.0 1011984
14:00+24сз442371 0.0 10091568
17:00+23сз652823 0.0 10081117
20:00+19зсз57424 0.0 1011430
19 октября, вт
вт1923:00+17зсз57460 0.0 1012287
02:00+17сз46420 0.0 1012157
05:00+16сз34400 0.0 101376
08:00+18ссз22340 0.0 101488
11:00+22з11260 0.0 1015795
14:00+25ююз12220 0.0 10131385
17:00+25юв22205 0.0 1012960
20:00+22вюв2228100 0.0 101452
20 октября, ср
ср2023:00+21сз223099 0.0 101543
02:00+19ссз1132100 0.0 101511
05:00+19ссз2230100 0.0 101515
08:00+21с11285 0.0 101713
11:00+25юз02214 0.0 1017820
14:00+27юв22175 0.0 10161505
17:00+27юв211726 0.0 1015942
20:00+23вюв2225100 0.0 101625